Stella, MO (64867)

10:03 PM CST on December 17, 2014 (GMT -0600)
Farm Road 2100 | Change Station
CLOSE
Current Station
Personal Weather Station
Location: Wheaton, MO
Elevation: 1335 ft
Nearby Weather Stations
Active Advisory: Winter Weather Advisory

Elev 1335 ft 36.79 °N, 94.07 °W | Updated 13 seconds ago

Rain
Rain
32.6 °F
Feels Like 28 °F
N
5.0
Wind Variable Wind from East
Gusts 7.0 mph

Today
High -- | Low -- °F
--% Chance of Precip.
Yesterday
High -- | Low -- °F
Precip. -- in
7:23 AM 5:02 PM
Waning Crescent, 17% visible
Pressure 30.20 in
Visibility 5.0 miles
Clouds Mostly Cloudy 700 ft
Mostly Cloudy 1200 ft
Overcast 4000 ft
Windchill 28 °F
Dew Point 31 °F
Humidity 95%
Rainfall 0.53 in
Snow Depth Not available.
UV 0 out of 12
Pollen 3.60 out of 12
Air Quality Not available.
Flu Activity Not available.
METAR KHFJ 180335Z AUTO 11007KT 5SM RA BKN007 BKN012 OVC040 00/00 A3020 RMK AO2 P0005

More Conditions Fewer Conditions

Pressure 30.20 in
Visibility 5.0 miles
Clouds Mostly Cloudy 700 ft
Mostly Cloudy 1200 ft
Overcast 4000 ft
Windchill 28 °F
Dew Point 31 °F
Humidity 95%
Rainfall 0.53 in
Snow Depth Not available.
UV 0 out of 12
Pollen 3.60 out of 12
Air Quality Not available.
Flu Activity Not available.
METAR KHFJ 180335Z AUTO 11007KT 5SM RA BKN007 BKN012 OVC040 00/00 A3020 RMK AO2 P0005

More Conditions Fewer Conditions

10-Day Weather Forecast

Almanac

Astronomy

Dec. 17, 2014 Rise Set
Actual Time
Civil Twilight
Nautical Twilight
Astronomical Twilight
Moon
Length of Visible Light
Length of Day
Tomorrow will be .
, % of the Moon is Illuminated

Today's Extremes

State Highs State Lows

Community

WunderPhotos

Upload Photos

1,778,879 photos uploaded!

WunderBlogs® & News

Nearby

Air Quality

  Air Quality AQ Index Pollutant
Not available.

Snow Depth

Station Depth Elevation

Earthquake Activity

City Distance Mag. Time & Date
Minimum magnitude displayed is 2.5.

Coastal Water Temperatures

Place Temperature

Nearby Weather Stations